Weatherdata for SK6EI
Location: Mountain Billingen, JO68VK in Skövde

Date & Time Temperature Wind (no data) Rain Pressure
Direction Average Gust
22/03-2019 11:58 CET 10.2 °C - 0 m/s 0 m/s 0.0 mm 1031 hPa, falling slowly
12:58 CET 11.4 °C - 0 m/s 0 m/s 0.0 mm 1030 hPa, falling
13:58 CET 11.9 °C - 0 m/s 0 m/s 0.0 mm 1029 hPa, falling
14:58 CET 12.0 °C - 0 m/s 0 m/s 0.0 mm 1028 hPa, falling
15:58 CET 10.4 °C - 0 m/s 0 m/s 0.0 mm 1027 hPa, falling
16:58 CET 9.7 °C - 0 m/s 0 m/s 0.0 mm 1026 hPa, falling
17:18 CET 9.5 °C - 0 m/s 0 m/s 0.0 mm 1025 hPa, falling


24 hours ending 2358 CET on 21 Mar 2019 Date & time
Daytime max temp 8.3 °C 21/03-20191238 CET
Night min temp 3.7 °C 21/03-20192358 CET
Total rainfall 0.0 mm -
Average wind speed 0 m/s -
Highest gust speed 0 m/s 21/03-20190008 CET
 
From 0000 CET on 22 Mar to 1718 CET on 22 Mar 2019 Date & time
Daytime max temp 12.0 °C 22/03-20191448 CET
Night min temp -2.5 °C 22/03-20190418 CET
Total rainfall 0.0 mm -
Average wind speed 0 m/s -
Highest gust speed 0 m/s 22/03-20190008 CET


Choose graph for latest | Hour | 24 Hours | 7 Days | 28 Days | 31 Days table |

24 hours ending Temperature Rainfall
  day max     night min  
 2019/02/19 23:59 CET   4.8 °C  0.7 °C  1.5 mm
 2019/02/20 23:58 CET   4.1 °C  -1.0 °C  0.0 mm
 2019/02/21 23:57 CET   0.0 °C  -3.4 °C  0.0 mm
 2019/02/22 23:58 CET   0.3 °C  -6.9 °C  0.0 mm
 2019/02/23 23:58 CET   2.0 °C  -1.1 °C  3.6 mm
 2019/02/24 23:58 CET   4.1 °C  0.8 °C  0.0 mm
 2019/02/25 23:58 CET   6.5 °C  0.2 °C  0.0 mm
 2019/02/26 23:58 CET   13.5 °C  1.9 °C  0.0 mm
 2019/02/27 23:58 CET   10.7 °C  1.7 °C  0.0 mm
 2019/02/28 23:58 CET   6.3 °C  -0.6 °C  0.0 mm
 2019/03/01 23:58 CET   3.2 °C  -4.4 °C  0.0 mm
 2019/03/02 23:58 CET   4.4 °C  -3.7 °C  0.0 mm
 2019/03/03 23:58 CET   6.6 °C  0.6 °C  3.0 mm
 2019/03/04 23:58 CET   3.4 °C  0.0 °C  15.3 mm
 2019/03/05 23:58 CET   -2.3 °C  -5.5 °C  0.0 mm
 2019/03/06 23:59 CET   2.7 °C  -5.6 °C  4.2 mm
 2019/03/07 23:59 CET   5.8 °C  0.0 °C  9.6 mm
 2019/03/08 23:59 CET   3.3 °C  -2.5 °C  1.8 mm
 2019/03/09 23:58 CET   2.5 °C  -2.1 °C  2.1 mm
 2019/03/10 23:58 CET   0.1 °C  -5.2 °C  0.0 mm
 2019/03/11 23:58 CET   -0.3 °C  -8.7 °C  0.0 mm
 2019/03/12 23:58 CET   1.7 °C  -8.8 °C  0.0 mm
 2019/03/13 23:58 CET   4.3 °C  0.3 °C  3.6 mm
 2019/03/14 23:58 CET   5.2 °C  0.9 °C  1.8 mm
 2019/03/15 23:58 CET   4.0 °C  0.2 °C  0.3 mm
 2019/03/16 23:58 CET   4.3 °C  -0.3 °C  0.3 mm
 2019/03/17 23:58 CET   5.1 °C  0.0 °C  9.3 mm
 2019/03/18 23:58 CET   1.0 °C  -0.4 °C  0.6 mm
 2019/03/19 23:58 CET   4.2 °C  -3.2 °C  0.3 mm
 2019/03/20 23:58 CET   8.4 °C  0.1 °C  0.0 mm
 2019/03/21 23:58 CET   8.3 °C  3.7 °C  0.0 mm